This is the latest recevied weather packets stored in our database for station/object AG7BI. If no packets are shown the sender has not sent any weather packets the latest 10 day(s).
| Time | Temp. | Humidity | Pressure | Rain* | Wind** | Luminosity | Snow |
|---|---|---|---|---|---|---|---|
| 1777913752 | 16.67° C | 69% | 1011 hPa | 0 mm | - | - | - |
| 1777913453 | 16.67° C | 70% | 1011.2 hPa | 0 mm | - | - | - |
| 1777913152 | 16.67° C | 70% | 1011.3 hPa | 0 mm | - | - | - |
| 1777912852 | 16.67° C | 68% | 1011.1 hPa | 0 mm | - | - | - |
| 1777912552 | 16.67° C | 72% | 1011 hPa | 0 mm | - | - | - |
| 1777912252 | 16.11° C | 73% | 1011 hPa | 0 mm | - | - | - |
| 1777911952 | 15.56° C | 73% | 1011 hPa | 0 mm | - | - | - |
| 1777911652 | 15° C | 70% | 1011.2 hPa | 0 mm | - | - | - |
| 1777911352 | 15° C | 74% | 1011.1 hPa | 0 mm | - | - | - |
| 1777911052 | 15° C | 74% | 1011 hPa | 0 mm | - | - | - |
| 1777910752 | 15° C | 74% | 1011.1 hPa | 0 mm | - | - | - |
| 1777910452 | 15° C | 76% | 1011.1 hPa | 0 mm | - | - | - |
| 1777910152 | 14.44° C | 78% | 1011.1 hPa | 0 mm | - | - | - |
| 1777909852 | 14.44° C | 75% | 1010.8 hPa | 0 mm | - | - | - |
| 1777909552 | 13.89° C | 74% | 1011 hPa | 0 mm | - | - | - |
| 1777909252 | 13.89° C | 75% | 1011 hPa | 0 mm | - | - | - |
| 1777908952 | 13.89° C | 76% | 1011 hPa | 0 mm | - | - | - |
| 1777908652 | 13.89° C | 76% | 1010.7 hPa | 0 mm | - | - | - |
| 1777908352 | 13.89° C | 75% | 1010.8 hPa | 0 mm | - | - | - |
| 1777908052 | 13.89° C | 76% | 1011 hPa | 0 mm | - | - | - |
| 1777907752 | 13.33° C | 74% | 1010.9 hPa | 0 mm | - | - | - |
| 1777907452 | 13.33° C | 75% | 1011 hPa | 0 mm | - | - | - |
| 1777907152 | 13.33° C | 72% | 1010.8 hPa | 0 mm | - | - | - |
| 1777906852 | 13.33° C | 75% | 1010.9 hPa | 0 mm | - | - | - |
| 1777906552 | 13.33° C | 74% | 1010.7 hPa | 0 mm | - | - | - |
* Rain latest hour (hover to see other rain measurements)
** Current wind speed in m/s (hover to see current wind gust speed)